Zanzibar, Tanzania

7:12 PM EAT on December 10, 2019 (GMT +0300)
Zanzibar

Weather History for HTZA - November, 2019

Change the Weather History Date:

Tuesday, November 12, 2019

  Actual Average Record
Temperature  
Mean Temperature 82 °F -  
Max Temperature 89 °F 82 °F 90 °F (2015)
Min Temperature 74 °F 76 °F 53 °F (2005)
Cooling Degree Days 16    
Growing Degree Days 32 (Base 50)    
Moisture  
Dew Point 74 °F    
Average Humidity 76    
Maximum Humidity 94    
Minimum Humidity 55    
Precipitation  
Precipitation 0.00 in 0.28 in - ()
Sea Level Pressure  
Sea Level Pressure 29.82 in    
Wind  
Wind Speed 3 mph ()    
Max Wind Speed 12 mph    
Max Gust Speed -    
Visibility 8.4 miles    
Events      
Averages and records for this station are not official NWS values.
T = Trace of Precipitation, MM = Missing Value Source: Averaged Metar Reports

Daily Weather History Graph

Daily Weather History Graph

Search for Another Location

Airport or City:

Astronomy

Nov. 12, 2019 Rise Set
Actual Time 5:55 AM EAT 6:18 PM EAT
Civil Twilight 5:33 AM EAT 6:40 PM EAT
Nautical Twilight 5:08 AM EAT 7:06 PM EAT
Astronomical Twilight 4:42 AM EAT 7:31 PM EAT
Moon 6:21 PM EAT (11/12) 5:45 AM EAT (11/12)
Length of Visible Light 13h 06m
Length of Day
12h 23m
Full, 100% of the Moon is Illuminated
Nov 12
Full
Nov 12
Full
Nov 20
Last Quarter
Nov 26
New
Dec 4
First Quarter

Hourly Weather History & Observations

Time (EAT) Temp. Heat Index Dew Point Humidity Pressure Visibility Wind Dir Wind Speed Gust Speed Precip Events Conditions
12:00 AM 78 °F - 75 °F 86% 29.84 in 19 mi Calm Calm - -   Scattered Clouds
12:00 AM 78.8 °F - 75.2 °F 89% 29.83 in 6.2 mi Calm Calm - N/A   Partly Cloudy
1:00 AM 77.0 °F - 75.2 °F 94% 29.80 in 6.2 mi Calm Calm - N/A   Partly Cloudy
2:00 AM 75.2 °F - 73.4 °F 94% 29.80 in 6.2 mi Calm Calm - N/A   Partly Cloudy
3:00 AM 75.2 °F - 73.4 °F 94% 29.77 in 6.2 mi Calm Calm - N/A   Partly Cloudy
4:00 AM 75.2 °F - 73.4 °F 94% 29.80 in 6.2 mi Calm Calm - N/A   Partly Cloudy
5:00 AM 75.2 °F - 73.4 °F 94% 29.80 in 6.2 mi Calm Calm - N/A   Partly Cloudy
6:00 AM 75.2 °F - 73.4 °F 94% 29.83 in 6.2 mi Calm Calm - N/A   Partly Cloudy
7:00 AM 78.8 °F - 75.2 °F 89% 29.83 in 6.2 mi Calm Calm - N/A   Partly Cloudy
8:00 AM 82.4 °F 89.5 °F 75.2 °F 79% 29.86 in 6.2 mi East 8.1 mph - N/A   Partly Cloudy
9:00 AM 83 °F - 74 °F 68% 29.86 in 19 mi SE 6.9 mph - -   Scattered Clouds
9:00 AM 84.2 °F 90.9 °F 73.4 °F 70% 29.86 in 6.2 mi SE 6.9 mph - N/A   Unknown
10:00 AM 86.0 °F 93.4 °F 73.4 °F 66% 29.86 in 6.2 mi SSW 6.9 mph - N/A   Unknown
11:00 AM 86.0 °F 95.1 °F 75.2 °F 70% 29.86 in 6.2 mi SSE 11.5 mph - N/A   Partly Cloudy
12:00 PM 86 °F - 77 °F 67% 29.86 in 19 mi South 6.9 mph - -   Scattered Clouds
12:00 PM 86.0 °F 96.9 °F 77.0 °F 74% 29.83 in 6.2 mi South 6.9 mph - N/A   Partly Cloudy
1:00 PM 86.0 °F 95.1 °F 75.2 °F 70% 29.83 in 6.2 mi South 9.2 mph - N/A   Partly Cloudy
2:00 PM 86.0 °F 95.1 °F 75.2 °F 70% 29.80 in 6.2 mi South 8.1 mph - N/A   Partly Cloudy
3:00 PM 88 °F - 76 °F 60% 29.79 in 19 mi SE 6.9 mph - -   Scattered Clouds
3:00 PM 87.8 °F 97.6 °F 75.2 °F 66% 29.77 in 6.2 mi SE 6.9 mph - N/A   Partly Cloudy
4:00 PM 89.6 °F 98.2 °F 73.4 °F 59% 29.77 in 6.2 mi SE 8.1 mph - N/A   Partly Cloudy
5:00 PM 87.8 °F 93.8 °F 71.6 °F 58% 29.77 in 6.2 mi SE 6.9 mph - N/A   Partly Cloudy
6:00 PM 86 °F - 72 °F 55% 29.79 in 19 mi ESE 5.8 mph - -   Scattered Clouds
6:00 PM 86.0 °F 91.8 °F 71.6 °F 62% 29.77 in 6.2 mi ESE 5.8 mph - N/A   Partly Cloudy
7:00 PM 84.2 °F 90.9 °F 73.4 °F 70% 29.80 in 6.2 mi East 6.9 mph - N/A   Partly Cloudy
8:00 PM 82.4 °F 87.2 °F 71.6 °F 70% 29.80 in 6.2 mi Calm Calm - N/A   Partly Cloudy
9:00 PM 80.6 °F 86.2 °F 75.2 °F 84% 29.83 in 6.2 mi East 5.8 mph - N/A   Partly Cloudy
10:00 PM 78.8 °F - 75.2 °F 89% 29.83 in 6.2 mi Calm Calm - N/A   Partly Cloudy
11:00 PM 78.8 °F - 73.4 °F 83% 29.83 in 6.2 mi Calm Calm - N/A   Partly Cloudy